Regional Weather Roundup
Issued by NWS Grand Forks, ND

Home | Current Version | Previous Version | Text Only | Print | Product List | Glossary Off
Versions: 1 2 3 4 5 6 7 8 9 10 11 12 13 14 15 16 17 18 19 20 21 22 23 24 25 26 27 28 29 30 31 32 33 34 35 36 37 38 39 40 41 42 43 44 45 46 47 48 49 50

000
ASUS43 KFGF 191531
RWRFGF
PRAIRIE TO PINES  WEATHER ROUNDUP
NATIONAL WEATHER SERVICE EASTERN NORTH DAKOTA/GRAND FORKS ND
900 AM CST SUN FEB 19 2017

 **SATELLITE DATA USED TO AUGMENT SKY COVER AT AUTOMATED STATIONS**
 *****  WEATHER ACROSS EASTERN NORTH DAKOTA  *****

CITY           SKY/WX    TMP DP  RH WIND       PRES   REMARKS
GRAND FORKS    CLOUDY    38  31  76 SE16      29.76F
GRAND FRKS AFB FAIR      36  33  90 SE8       29.76F
DEVILS LAKE    CLOUDY    35  33  92 E16       29.70S
FARGO          FAIR      43  38  82 SE14      29.76F
WAHPETON ARPT  FAIR      39  36  87 SE14      29.78F
$$

 ***** WEATHER ACROSS CENTRAL AND WESTERN NORTH DAKOTA  *****

CITY           SKY/WX    TMP DP  RH WIND       PRES   REMARKS
BISMARCK       FAIR      36  33  89 E8        29.59F
MINOT          CLOUDY    35  32  88 E10       29.61F
JAMESTOWN      FAIR      36  34  92 SE9       29.67F
MINOT AFB      CLOUDY    33  31  91 E15       29.61S WCI  23
GARRISON         N/A     33  32  96 E6        29.58R
WILLISTON      CLOUDY    34  32  92 E5        29.55F
DICKINSON      FOG       29  28  96 E9        29.50F VSB 1/4 WCI  20
HETTINGER      FAIR      32  28  85 E3        29.54S
$$

 *****  OTHER AIRPORT OBSERVATIONS IN OUR AREA  *****

CITY           SKY/WX    TMP DP  RH WIND       PRES   REMARKS
WALHALLA       NOT AVBL
GRAFTON AIRPOR PTSUNNY   34  34 100 E8        29.81S
VALLEY CITY AR MIX PCPN  36  36 100 SE16      29.71F
CANDO          NOT AVBL
CAVALIER APRT  FAIR      34  32  93 E8        29.80F
GWINNER        FAIR      37  36  93 E8        29.72F
SHEYENNE NWR     N/A     38  36  91 SE8       29.95S
ROLLA          CLOUDY    32  32 100 E14       29.71S WCI  22
 ***** THE ABOVE OBSERVATIONS ARE NON NWS ARE NOT QUALITY
       CONTROLLED AND MAY MIS-REPORT RAIN FOR SNOW...
$$

  *****  WEATHER ACROSS NORTHERN MINNESOTA  *****

CITY           SKY/WX    TMP DP  RH WIND       PRES   REMARKS
FLAG ISLAND    FAIR      34  28  80 E7        29.89F
WARROAD        FAIR      34  28  80 E8        29.89S
ROSEAU         FAIR      36  30  80 E9        29.87S
HALLOCK        FAIR      36  32  87 E16       29.80F
THF RVR FALLS  FAIR      35  31  85 E14       29.84S
BAUDETTE       CLOUDY    32  28  85 E10       29.89F WCI  24
WASKISH        FAIR      36  32  87 SE7       29.89F
CROOKSTON      FAIR      39  36  87 SE14      29.79F
STEPHEN NDAWN    N/A     36  32  87 E12         N/A
GREENBUSH NDAW   N/A     34  30  86 E8          N/A
$$
  *****  WEATHER ACROSS CENTRAL AND WEST MINNESOTA  *****

CITY           SKY/WX    TMP DP  RH WIND       PRES   REMARKS
FOSSTON        FAIR      39  32  75 SE12G18   29.82F
BEMIDJI        FAIR      34  32  90 SE9       29.88F
PARK RAPIDS    FAIR      40  31  70 SE12      29.87F
ELBOW LAKE     FAIR      44  39  85 SE13      29.81F
WADENA         FAIR      37  36  93 SE9       29.86S
DETROIT LAKES  FAIR      41  36  81 SE14      29.83F
MOORHEAD       FAIR      43  37  81 SE12      29.77F
FERGUS FALLS   FAIR      45  37  76 SE14      29.83F
MORRIS MN      FAIR      41  39  93 SE15      29.80F
STAPLES        FAIR      37  36  93 SE7       29.88F
$$
  *****  WEATHER ELSEWHERE ACROSS MINNESOTA  *****

CITY           SKY/WX    TMP DP  RH WIND       PRES   REMARKS
DULUTH         FAIR      36  31  82 E7        29.96R
INTRNTL FALLS  CLOUDY    32  28  85 E7        29.94S
ELY            FAIR      32  30  93 CALM      29.97S
CLOQUET        FAIR      37  30  75 E6        29.96R
WHEATON        FAIR      37  36  93 SE14      29.79F
BRAINERD       FAIR      38  33  82 SE8       29.92F
HIBBING        FAIR      30  30 100 CALM      29.96R
ALEXANDRIA     FAIR      40  37  89 SE13      29.85F
SAINT CLOUD    FAIR      40  38  93 SE7       29.92F
MINNEAPOLIS    PTSUNNY   40  35  83 SE5       29.96S
$$

  *****  WEATHER ACROSS SOUTH DAKOTA  *****

CITY           SKY/WX    TMP DP  RH WIND       PRES   REMARKS
SIOUX FALLS    PTSUNNY   46  38  73 SE9       29.79F
BROOKINGS      FAIR      42  36  79 SE17      29.76F
WATERTOWN      FAIR      41  35  79 SE9       29.73F
HURON          FAIR      43  36  76 SE13      29.70S
SISSETON         N/A     36  36 100 S9        29.75F
ABERDEEN       FAIR      41  34  76 S8        29.69F
MITCHELL       FAIR      42  36  79 SE14      29.72R
PIERRE         FAIR      42  34  73 SE13      29.59F
MOBRIDGE       FAIR      39  32  76 SE10      29.55F
RAPID CITY     FAIR      37  30  75 CALM      29.55F
$$

  *****  SOME WEATHER IN NEARBY STATES *****

CITY           SKY/WX    TMP DP  RH WIND       PRES   REMARKS
GLASGOW MT     CLOUDY    31  30  96 E17G25    29.46S FOG     WCI  19
GREAT FALLS MT CLOUDY    43  33  68 SW13      29.40R
CHEYENNE WY    FAIR      42  25  50 W6        29.69R
SCOTTSBLUFF NE FAIR      34  27  75 CALM      29.66S
OMAHA NE       PTSUNNY   50  43  77 S10       29.89S
DES MOINES IA  FAIR      48  35  60 S7        29.97R
DAVENPORT IA   FAIR      46  41  82 SE5       30.03R
CHICAGO IL     FAIR      53  36  52 CALM      30.03R
EAU CLAIRE WI  FAIR      38  34  85 CALM      30.00R
LA CROSSE WI   FAIR      36  32  85 S5        30.02R
$$

  *****  SOME NATIONAL WEATHER *****

CITY           SKY/WX    TMP DP  RH WIND       PRES   REMARKS
LA GUARDIA NY  PTSUNNY   60  36  40 W8        29.81R
RALEIGH NC     FAIR      63  41  44 N10       29.98R
ATLANTA GA     PTSUNNY   59  52  77 NW13      30.10R
NEW ORLEANS LA CLOUDY    63  63 100 NE7       30.08R FOG
OKLAHOMA CITY  FOG       57  57 100 S17       29.92R VSB 1/2
ALBUQUERQUE NM LGT RAIN  40  39  97 S13       29.89R
SALT LAKE CITY LGT RAIN  43  41  93 N12       29.67R
LOS ANGELES CA MOCLDY    53  52  96 E6        29.85R
BOISE ID       CLOUDY    40  36  86 E6        29.59R
SEATTLE WA     LGT RAIN  42  39  89 SE7       29.40R
$$

*** WEATHER ACROSS MANITOBA...SASKATCHEWAN AND ONTARIO ***
                ***ONTARIO***

CITY           SKY/WX    TMP DP  RH WIND       PRES   REMARKS
GERALDTON      CLOUDY    30  25  80 N6        29.95R WCI  24
THUNDER BAY    MOSUNNY   36  27  69 CALM      30.00R
SIOUX LOOKOUT  PTSUNNY   30  25  80 SW3       29.96R
TORONTO        MOSUNNY   48  36  61 W17       29.87R
BIG TROUT LK   CLOUDY    19  19 100 E3        30.01R
PICKLE LAKE    CLOUDY    27  21  80 N6        29.97R WCI  20
DRYDEN         SUNNY     28  27  93 E3        29.95R
KENORA         PTSUNNY   30  27  86 E9        29.92S WCI  22
$$
                *** MANITOBA***

CITY           SKY/WX    TMP DP  RH WIND       PRES   REMARKS
BRANDON        PTSUNNY   28  27  93 E18G24    29.80R WCI  16
DAUPHIN        CLOUDY    28  27  93 E13       29.87S WCI  18
ISLAND LAKE    CLOUDY    16  14  93 S3        30.02R
PILOT MOUND      N/A     34  30  86 E17G25      N/A  WCI  23
THE PAS        CLOUDY    28  25  86 E7        29.92S WCI  21
THOMPSON       CLOUDY    19  16  86 CALM      30.00R
WINNIPEG       PTSUNNY   32  27  80 E8        29.88S WCI  25
LYNN LAKE      CLOUDY    16  16 100 S5        29.94R WCI   9
CHURCHILL      MOCLDY     0  -2  92 S7        30.08R WCI -13
GILLAM         FLURRIES  14  10  85 S2        30.03R
$$
                ***SASKATCHEWAN***

CITY           SKY/WX    TMP DP  RH WIND       PRES   REMARKS
ESTEVAN        CLOUDY    32  28  86 E21G29    29.61F WCI  20
KINDERSLEY     MOCLDY    32  30  93 SE17G24   29.40R WCI  21
LLOYDMINSTER   FLURRIES  32  30  93 SE18G28   29.44R WCI  20
PRINCE ALBERT  CLOUDY    28  25  86 E13       29.69F WCI  18
REGINA         MOCLDY    32  27  80 SE24G30   29.59S WCI  19
YORKTON        CLEAR     30  27  86 E15G21    29.73F WCI  19
N. BATTLEFORD  CLOUDY    34  32  93 E26G33    29.51F WCI  21
LA RONGE       CLOUDY    21  19  93 E9        29.81S WCI  11
SASKATOON      CLOUDY    34  28  80 SE17G24   29.58F WCI  23
SWIFT CURRENT  CLEAR     30  30 100 E16       29.41F WCI  19
$$
NOTE: THESE ARE AUTOMATED STATIONS WITH LIMITED QUALITY CONTROL
      "FAIR" INDICATES FEW OR NO CLOUDS BELOW 12,000 FEET WITH NO
      SIGNIFICANT WEATHER AND/OR OBSTRUCTIONS TO VISIBILITY.
      SKY/WX - SKY CONDITION AND SIGNIFICANT WEATHER.
      TMP - AIR TEMPERATURE.    DP   - DEWPOINT TEMPERATURE.
      RH  - RELATIVE HUMIDITY.  PRES - PRESSURE.
      HX  - HEAT INDEX.         WCI  - WIND CHILL INDEX.
$



USA.gov is the U.S. government's official web portal to all federal, state and local government web resources and services.